Reading, PA

12:33 AM EDT on March 24, 2017 (GMT -0400)
Reading Regional-Spaatz

Weather History for KRDG - November, 2013

Change the Weather History Date:

Sunday, November 10, 2013

  Actual Average Record
Temperature  
Mean Temperature 44 °F 46 °F  
Max Temperature 55 °F 56 °F 74 °F (1985)
Min Temperature 32 °F 36 °F 21 °F (2003)
Degree Days  
Heating Degree Days 21 19  
Month to date heating degree days 172 175  
Since 1 July heating degree days 537 613  
Cooling Degree Days 0 0  
Month to date cooling degree days 0 0  
Year to date cooling degree days 1124 896  
Moisture  
Dew Point 29 °F    
Average Humidity 59    
Maximum Humidity 85    
Minimum Humidity 32    
Precipitation  
Precipitation 0.00 in 0.11 in 1.92 in (1962)
Month to date precipitation 0.38 1.12  
Year to date precipitation 35.60 37.64  
Sea Level Pressure  
Sea Level Pressure 30.01 in    
Wind  
Wind Speed 10 mph (WNW)    
Max Wind Speed 30 mph    
Max Gust Speed 38 mph    
Visibility 10 miles    
Events      
T = Trace of Precipitation, MM = Missing Value Source: NWS Daily Summary

Daily Weather History Graph

Daily Weather History Graph

Search for Another Location

Airport or City:

Trip Planner

Search our weather history database for the weather conditions in past years. The results will help you decide how hot, cold, wet, or windy it might be!

Date:

Astronomy

Nov. 10, 2013 Rise Set
Actual Time 6:44 AM EST 4:50 PM EST
Civil Twilight 6:15 AM EST 5:19 PM EST
Nautical Twilight 5:42 AM EST 5:52 PM EST
Astronomical Twilight 5:10 AM EST 6:24 PM EST
Moon 12:55 PM EST (11/10) No Moon Set
Length of Visible Light 11h 04m
Length of Day
10h 06m
First Quarter, 55% of the Moon is Illuminated
Nov 10
First Quarter
Nov 17
Full
Nov 25
Last Quarter
Dec 2
New
Dec 9
First Quarter

Hourly Weather History & Observations

Time (EST) Temp. Windchill Dew Point Humidity Pressure Visibility Wind Dir Wind Speed Gust Speed Precip Events Conditions
12:54 AM 37.9 °F - 30.0 °F 73% 29.99 in 10.0 mi Calm Calm - N/A   Clear
1:54 AM 39.0 °F - 30.0 °F 70% 29.97 in 10.0 mi Calm Calm - N/A   Clear
2:54 AM 34.0 °F 31.0 °F 28.9 °F 82% 29.97 in 10.0 mi NW 3.5 mph - N/A   Clear
3:54 AM 33.1 °F 30.0 °F 28.9 °F 85% 29.96 in 10.0 mi NNW 3.5 mph - N/A   Clear
4:54 AM 32.0 °F - 28.0 °F 85% 29.96 in 10.0 mi Calm Calm - N/A   Clear
5:54 AM 32.0 °F - 28.0 °F 85% 29.96 in 9.0 mi Calm Calm - N/A   Clear
6:54 AM 37.0 °F - 28.0 °F 70% 29.96 in 10.0 mi Calm Calm - N/A   Clear
7:54 AM 37.9 °F - 30.9 °F 76% 29.97 in 10.0 mi Calm Calm - N/A   Clear
8:54 AM 45.0 °F 42.6 °F 32.0 °F 60% 29.96 in 10.0 mi NNW 4.6 mph - N/A   Partly Cloudy
9:54 AM 48.9 °F - 33.1 °F 54% 29.94 in 10.0 mi NNW 3.5 mph - N/A   Mostly Cloudy
10:54 AM 54.0 °F - 36.0 °F 51% 29.94 in 10.0 mi West 9.2 mph - N/A   Overcast
11:54 AM 53.1 °F - 32.0 °F 45% 29.93 in 10.0 mi West 16.1 mph 26.5 mph N/A   Overcast
12:54 PM 53.1 °F - 27.0 °F 37% 29.94 in 10.0 mi West 20.7 mph 36.8 mph N/A   Mostly Cloudy
1:54 PM 54.0 °F - 28.0 °F 37% 29.95 in 10.0 mi WNW 19.6 mph 27.6 mph N/A   Mostly Cloudy
2:54 PM 54.0 °F - 26.1 °F 34% 29.98 in 10.0 mi WNW 13.8 mph 25.3 mph N/A   Overcast
3:54 PM 53.1 °F - 25.0 °F 34% 30.01 in 10.0 mi WNW 18.4 mph 33.4 mph N/A   Overcast
4:54 PM 51.1 °F - 26.1 °F 38% 30.05 in 10.0 mi WNW 19.6 mph 27.6 mph N/A   Overcast
5:54 PM 50.0 °F - 25.0 °F 38% 30.08 in 10.0 mi West 15.0 mph 24.2 mph N/A   Overcast
6:54 PM 48.9 °F - 26.1 °F 41% 30.09 in 10.0 mi West 15.0 mph 21.9 mph N/A   Overcast
7:54 PM 48.0 °F - 27.0 °F 44% 30.10 in 10.0 mi West 15.0 mph 23.0 mph N/A   Overcast
8:54 PM 48.0 °F - 28.0 °F 46% 30.12 in 10.0 mi West 8.1 mph 17.3 mph N/A   Overcast
9:54 PM 46.9 °F - 28.0 °F 48% 30.13 in 10.0 mi WNW 9.2 mph 17.3 mph N/A   Mostly Cloudy
10:54 PM 46.9 °F - 28.0 °F 48% 30.14 in 10.0 mi WNW 16.1 mph 26.5 mph N/A   Partly Cloudy
11:54 PM 46.0 °F 39.0 °F 27.0 °F 47% 30.16 in 10.0 mi NW 17.3 mph 23.0 mph N/A   Overcast